ZHONGXING-26

Last updated on Thu Jul 03 2025 00:02:49 GMT+0000 (Coordinated Universal Time)

1 55686U 23023A 25183.32961532 -.00000347 00000+0 00000+0 0 9993 2 55686 0.0874 78.3771 0003878 15.8852 70.1258 1.00271903 8722
UTC large
Height (km)
Speed (km/s)
/
Latitude / Longitude
Inclination (degrees)
Orbital Period (minutes)
Azimuth
Elevation
Range (km)
Doppler Factor

Next 0 passes for location: London (51.5072 / 0.1276)

Sorry there are no passes over London.